Theta_e
319 319 318 316 316 316 316 317 317 318 319 319 319 320 320 321 321 322 322 322 322 323 323 323 325 326 326 327 327 326 322 304 305 306 304 303 318 334 335 337 337 335 326 299 301 300 300 294 298 296 296 295 295 296 296 295 292 289 285 282 284 281 284 286 288 288 287 289 290 291 289 290 291 293 295 294 294 291 292 293 293 296 298 296 297 296 299 304
318 318 317 316 316 316 316 316 317 317 318 318 319 319 320 320 321 321 322 322 322 322 323 324 324 326 326 326 326 326 309 304 302 302 305 316 338 337 337 338 336 332 320 301 300 296 298 297 297 293 293 294 296 297 295 297 292 286 282 280 284 282 288 289 287 289 289 291 289 289 288 291 291 291 294 292 291 290 294 294 292 294 296 300 299 299 306 309
317 317 316 315 315 315 315 315 317 317 317 317 318 319 319 320 320 321 321 322 322 322 323 324 324 324 326 326 324 324 310 302 301 302 302 328 336 338 338 336 333 326 304 306 301 299 301 300 298 294 291 292 292 295 292 295 295 288 285 285 282 286 286 287 287 290 289 289 290 290 289 290 292 292 293 294 289 289 292 290 293 293 294 296 298 300 303 307
317 316 315 314 314 315 315 315 316 317 317 317 317 318 319 319 320 320 321 321 322 323 323 323 324 325 324 325 325 316 302 299 297 298 300 329 336 337 336 335 331 313 302 301 299 298 294 294 292 296 294 291 290 289 291 292 294 290 285 280 290 286 290 292 287 288 287 289 289 288 289 291 292 290 293 289 291 290 289 289 293 294 293 297 296 297 300 303
315 315 314 313 314 314 314 315 315 316 317 318 318 318 318 319 320 320 320 321 322 322 323 323 324 325 324 324 320 308 296 292 295 300 304 331 332 334 333 331 330 299 303 298 299 295 295 294 292 291 293 294 288 288 290 291 290 286 289 286 287 285 291 292 287 287 288 287 288 287 291 292 292 292 289 290 291 289 289 291 292 293 294 298 297 297 297 299
314 314 313 313 313 313 313 314 315 316 316 317 317 317 318 319 319 319 320 321 322 322 323 324 324 323 324 323 306 299 295 285 298 301 325 329 332 331 329 325 322 299 299 297 298 294 300 296 294 292 289 288 289 289 291 290 292 289 290 287 286 286 291 291 288 288 287 289 288 289 291 292 292 292 288 289 293 289 290 291 290 291 294 298 298 297 298 297
313 314 313 313 313 313 313 313 314 315 315 316 317 317 318 319 319 319 319 320 321 322 322 324 324 324 323 322 300 295 293 293 300 307 326 330 329 323 325 314 314 299 299 299 296 298 292 294 292 289 288 289 289 290 291 290 289 287 290 289 292 287 293 290 292 287 287 290 290 289 292 293 290 292 289 289 290 289 291 292 291 293 297 298 298 296 298 297
313 313 313 313 312 312 312 312 312 313 315 316 316 317 318 318 319 319 319 320 321 322 323 323 324 324 321 301 304 293 295 297 302 307 320 324 309 305 317 304 302 299 301 297 299 297 294 293 293 289 288 290 292 291 291 293 290 290 291 290 291 289 288 289 287 287 288 289 289 290 293 293 289 290 290 290 292 292 293 294 295 296 296 296 297 296 296 296
313 313 313 312 312 311 311 311 313 312 314 315 316 316 317 318 319 319 319 320 321 321 322 323 323 322 319 297 290 293 292 299 308 311 308 303 300 302 304 306 300 300 297 295 294 298 299 293 292 292 293 291 293 293 290 293 290 291 293 290 289 292 288 289 291 288 288 291 290 293 291 289 289 290 292 293 291 292 293 294 294 295 295 295 295 295 296 296
313 313 313 312 311 311 311 311 312 312 314 315 316 316 317 318 318 319 319 320 321 321 322 323 323 320 301 298 291 290 295 306 308 309 302 301 299 300 302 301 299 300 301 298 297 297 299 293 298 295 293 292 291 291 290 291 291 289 289 290 291 291 289 290 292 290 289 291 290 292 290 291 289 292 291 291 291 292 294 293 292 294 295 294 294 294 294 295
314 313 313 312 311 311 312 313 313 314 314 315 315 316 316 317 318 318 319 320 321 321 322 322 321 312 298 293 292 289 303 309 309 305 302 301 300 302 302 301 300 298 298 297 298 299 296 294 295 294 296 293 293 291 290 293 291 290 289 289 290 287 290 289 289 290 291 294 288 291 290 289 289 290 292 291 291 293 293 292 292 292 292 293 293 293 293 294
315 316 315 313 313 312 312 313 313 313 314 315 315 315 315 316 317 318 319 320 321 322 322 322 319 298 291 289 288 292 302 308 306 304 303 302 302 302 301 302 300 303 301 299 300 300 298 297 296 296 295 296 291 292 292 291 292 291 291 295 290 286 293 291 292 290 291 293 289 290 292 289 289 289 291 288 291 292 292 291 291 291 291 291 291 292 292 293
314 315 314 313 313 313 313 313 313 314 315 315 315 315 316 316 317 318 319 320 321 323 322 322 314 301 298 294 292 297 298 299 305 303 303 302 301 300 299 298 299 300 300 298 299 301 298 295 296 298 295 292 291 292 293 291 290 291 289 289 289 286 286 291 290 288 290 292 287 291 286 285 287 293 290 291 292 290 291 290 291 290 289 289 290 291 292 291
315 314 314 313 313 313 313 314 314 315 316 316 316 316 316 316 317 318 320 320 322 322 322 320 303 293 293 288 297 303 305 306 308 304 302 303 303 303 300 300 299 297 299 299 298 297 298 297 298 297 295 294 294 295 292 288 289 291 289 285 283 285 284 290 289 289 291 290 289 291 286 286 287 286 288 289 291 292 292 292 291 290 289 289 290 290 292 291
315 315 314 314 314 313 313 313 313 315 315 316 316 315 316 316 317 318 320 321 322 323 320 316 301 298 290 291 298 305 321 307 306 304 303 303 301 302 302 299 301 297 297 298 299 298 297 297 296 291 294 292 295 293 286 284 284 284 287 282 278 284 282 285 289 288 291 291 290 292 285 289 292 292 288 289 290 290 292 291 291 290 290 290 289 290 291 292
316 314 314 315 314 314 314 313 313 315 315 315 316 315 316 317 317 319 321 321 323 317 309 306 300 290 288 291 302 315 304 303 305 304 302 302 302 302 300 299 298 299 298 299 298 298 298 299 295 293 292 294 288 285 283 286 285 280 285 281 285 283 281 288 290 285 289 290 290 291 288 285 289 288 287 289 290 289 289 289 290 290 290 290 291 291 290 291
317 316 314 315 315 315 315 315 314 315 315 315 316 317 317 318 319 320 321 319 308 308 305 301 296 296 291 295 306 301 299 302 303 303 303 301 299 299 297 297 296 299 296 301 298 300 297 295 293 292 288 288 284 284 284 278 280 281 282 284 279 284 283 285 287 290 288 290 289 289 287 288 289 288 286 290 290 289 289 291 290 290 290 291 291 290 290 291
317 317 316 316 316 316 315 315 315 315 316 316 315 316 313 319 320 318 317 308 305 306 303 301 295 292 292 295 294 298 299 302 304 302 300 300 297 298 298 297 295 293 292 296 296 295 294 294 290 290 288 282 287 282 281 279 280 281 284 284 285 283 283 284 285 290 289 288 288 287 286 289 292 292 288 289 289 289 291 292 292 290 290 290 291 291 290 291
318 317 318 317 317 316 316 315 315 316 316 316 317 318 319 319 305 304 303 299 296 294 292 294 291 286 286 291 295 301 303 304 302 302 304 302 300 297 297 295 295 297 292 290 293 296 291 291 289 286 287 286 287 288 285 283 282 284 282 281 280 285 283 284 285 286 288 287 287 285 287 289 291 292 292 287 289 289 291 290 290 290 290 290 291 291 291 291
318 318 318 318 317 316 316 316 316 315 315 311 308 305 298 297 292 299 294 301 292 290 292 290 292 290 294 292 300 303 304 302 302 299 302 301 301 297 296 294 294 291 291 290 291 291 290 287 285 285 286 289 287 289 289 284 286 284 282 281 282 283 283 284 284 286 286 288 286 288 288 287 290 291 292 289 287 288 289 289 290 291 291 290 291 291 291 291
318 318 318 317 317 317 316 316 316 314 316 309 310 296 289 290 287 286 289 296 294 294 296 296 293 293 295 297 299 300 300 298 299 300 302 302 299 299 294 294 288 290 286 287 291 292 288 287 286 288 288 287 288 286 285 285 284 286 283 285 284 282 285 286 289 288 286 288 283 284 284 286 288 290 291 290 286 288 289 290 290 291 291 291 291 291 291 291
319 318 318 317 317 317 317 316 315 316 316 312 306 293 297 290 293 295 293 292 295 296 297 296 297 298 298 300 301 299 297 295 298 301 302 301 298 296 291 289 286 290 287 289 289 288 287 286 289 289 286 285 284 286 285 287 285 283 287 282 284 283 283 286 286 285 287 288 286 283 286 288 289 290 292 291 291 291 292 292 293 293 292 291 291 291 291 289
319 318 318 318 317 317 317 316 314 316 305 306 304 302 301 305 301 299 295 292 292 295 295 296 295 296 296 298 300 300 298 292 294 297 300 299 295 294 291 290 287 286 288 289 289 283 285 283 290 287 286 288 285 284 286 285 283 282 281 285 284 281 286 283 284 286 288 287 284 283 287 290 290 291 292 294 294 291 291 291 291 291 292 292 292 292 292 290
318 318 318 318 318 317 317 315 316 312 306 306 303 301 304 305 301 301 298 291 288 291 295 295 296 294 295 296 300 300 295 294 294 296 300 298 296 292 293 288 286 287 289 289 289 288 287 287 289 287 288 289 286 284 285 285 285 282 284 281 281 284 283 286 285 285 285 287 283 285 287 290 289 291 291 290 286 288 292 290 290 290 291 291 291 291 292 291
318 318 318 318 317 318 316 315 310 307 309 307 304 307 305 304 303 304 295 286 283 287 295 295 296 294 296 301 301 301 295 293 293 296 301 299 292 292 291 289 287 287 287 287 287 286 287 287 287 288 287 285 285 285 284 287 283 281 282 287 287 285 286 284 283 286 283 281 283 284 281 279 280 282 286 289 286 290 289 290 292 293 290 288 290 290 290 291
318 318 318 318 318 317 317 308 306 308 306 302 303 302 306 303 304 299 287 280 280 282 291 289 299 296 302 296 300 295 296 292 293 296 300 298 301 294 292 291 289 288 286 287 287 285 287 288 289 288 287 286 286 284 283 287 283 284 284 285 288 286 285 285 285 285 279 279 285 283 282 281 280 286 286 286 285 290 290 287 291 291 289 288 290 290 290 290
318 318 318 318 318 317 307 299 308 307 298 298 303 303 302 304 302 302 290 279 278 288 288 291 294 293 302 295 299 292 285 285 296 297 299 300 299 298 292 288 288 288 288 287 286 286 287 288 285 285 285 285 285 285 286 289 286 282 283 282 285 285 285 284 284 285 282 280 283 282 279 280 285 284 289 285 286 290 291 293 294 292 288 288 289 289 289 290
318 318 318 318 318 315 306 307 307 302 298 303 302 306 304 305 300 292 285 273 274 292 289 289 294 299 298 298 298 294 288 293 292 295 296 297 298 295 291 287 291 290 288 287 284 285 288 286 286 286 285 283 286 285 285 290 286 283 286 283 283 285 283 282 284 282 282 281 282 284 284 283 281 281 282 284 289 289 292 294 293 290 287 288 288 288 289 290
318 318 317 318 317 316 312 309 307 302 303 301 304 307 307 301 292 288 279 273 285 287 301 293 302 298 293 296 292 288 291 290 288 292 295 297 298 294 290 287 288 288 289 289 288 286 286 288 288 290 288 286 285 284 287 291 288 286 284 285 284 283 282 281 280 284 281 279 282 282 284 278 284 281 285 282 285 288 291 293 291 288 288 287 287 287 287 287
318 318 318 318 316 313 311 313 307 305 305 305 307 307 306 298 291 284 277 272 291 284 292 294 294 289 292 292 289 290 291 289 290 294 294 293 294 294 294 290 289 288 289 290 287 285 289 291 289 289 288 287 286 285 285 287 287 288 286 289 285 282 280 279 279 279 279 276 283 283 285 284 281 283 285 286 287 289 289 288 285 285 285 285 286 287 287 288
318 318 318 317 310 310 310 306 310 310 306 307 308 306 300 290 283 278 273 282 289 289 290 290 289 292 291 289 287 287 288 288 293 294 291 294 293 291 292 291 291 285 284 284 286 284 289 289 290 289 289 287 288 288 286 286 286 289 286 282 286 284 278 277 272 275 274 276 276 278 283 283 280 279 282 286 286 285 287 288 286 289 286 286 286 286 287 287
317 318 319 315 312 312 305 304 310 311 308 308 308 302 293 283 285 278 278 289 283 285 288 285 287 289 290 290 288 289 289 289 291 292 291 289 289 291 291 288 288 281 279 284 283 284 285 287 286 290 290 290 287 288 287 286 288 287 286 287 279 274 271 273 269 275 273 277 279 277 281 281 283 287 286 287 289 290 288 290 291 289 288 286 285 286 287 287
317 317 318 316 313 309 309 311 313 312 309 308 305 297 288 282 276 283 281 284 282 288 287 287 286 289 290 288 286 287 288 288 289 290 289 289 290 290 289 288 289 285 280 282 284 283 283 283 286 289 289 290 292 288 284 283 287 286 288 283 278 272 271 268 266 264 269 276 278 279 280 280 282 285 291 294 296 294 290 290 290 290 290 289 286 286 286 287
317 317 315 315 312 311 311 311 314 313 310 307 300 293 286 280 279 291 286 285 286 286 287 285 287 287 290 287 286 290 286 286 290 289 290 288 288 287 289 290 288 287 283 282 283 283 277 278 284 289 287 291 293 293 291 286 287 289 284 288 284 277 271 267 267 274 276 274 276 277 277 275 278 284 287 289 289 288 286 285 285 285 285 284 284 285 285 286
317 316 316 315 312 312 311 313 313 313 309 305 296 288 281 280 285 284 284 285 284 286 286 289 288 286 286 285 286 290 287 285 288 288 287 287 286 286 286 290 290 288 283 284 282 280 283 282 280 288 287 290 292 289 288 287 287 284 283 285 280 282 279 278 271 269 269 270 271 273 279 279 284 284 286 285 285 285 286 286 283 286 284 283 284 285 286 287
315 314 316 311 310 312 313 314 314 312 306 299 289 284 283 286 284 289 287 290 288 287 286 287 283 285 283 284 285 288 291 286 287 287 286 286 285 287 289 288 291 291 287 285 284 280 280 279 284 285 286 287 288 287 290 288 285 284 286 283 284 283 280 273 272 270 272 270 278 273 279 282 284 288 292 292 285 288 285 286 285 287 283 282 285 285 286 286
312 313 308 310 310 313 313 314 314 310 305 296 287 283 289 290 292 291 294 290 291 292 287 286 284 285 283 283 285 286 289 289 287 286 284 287 287 288 287 290 292 292 293 290 285 286 283 280 285 285 287 287 286 286 285 286 286 285 281 284 285 285 283 281 276 269 269 272 276 274 279 281 279 283 281 286 286 289 287 288 287 284 281 283 285 285 286 286
310 309 310 309 311 313 314 314 313 308 301 293 286 289 291 289 294 292 291 290 291 291 287 288 284 288 283 284 284 286 288 287 286 286 284 287 285 291 288 287 290 293 294 289 288 286 287 281 283 282 283 286 284 289 289 287 287 285 282 286 287 281 279 279 275 273 267 269 272 275 276 278 282 285 284 285 286 289 290 290 287 288 285 285 284 285 285 285
309 307 302 309 314 314 313 314 311 304 296 289 286 287 291 292 295 290 292 293 293 291 289 288 286 286 285 284 284 286 289 285 287 286 284 284 284 289 291 292 288 292 294 291 287 285 288 283 280 284 284 285 286 287 284 284 288 286 287 287 284 283 275 276 280 273 276 270 267 276 275 283 283 284 284 289 288 290 290 288 289 291 291 288 286 285 286 285
306 301 300 310 313 314 313 312 306 301 293 285 287 288 293 290 293 294 293 294 291 290 287 287 285 286 285 286 287 285 287 286 287 286 287 286 288 289 289 292 289 287 291 294 291 290 285 284 276 280 285 285 284 285 285 287 286 283 284 282 285 279 282 280 278 276 276 267 268 271 278 283 282 285 286 291 290 289 289 290 290 291 289 287 286 286 286 286
306 301 300 310 312 313 312 306 299 294 289 289 291 290 292 291 293 294 294 295 293 295 290 286 288 288 287 285 285 286 286 285 285 284 285 285 287 284 289 291 290 289 289 291 291 288 284 281 281 280 282 282 283 282 285 288 291 289 289 286 288 283 280 276 279 277 271 275 278 268 279 286 283 283 289 288 290 289 288 288 289 288 287 286 286 286 286 286
301 293 298 311 312 312 304 295 295 298 290 287 287 290 289 298 291 292 294 294 294 293 295 290 287 287 286 289 288 287 287 284 285 285 285 286 288 288 288 291 293 293 292 288 291 293 290 284 282 278 282 285 284 285 282 284 284 285 286 284 287 285 283 278 275 278 273 278 276 274 268 284 285 285 285 286 284 286 286 285 288 288 287 285 285 286 286 287
298 296 305 310 312 309 301 293 295 293 288 290 296 294 294 293 293 294 294 296 293 295 294 294 292 289 288 288 287 289 290 286 287 286 284 286 288 291 286 290 290 292 293 287 289 286 293 286 283 283 281 281 283 283 282 281 285 286 284 281 285 287 287 287 285 281 281 274 276 274 273 285 286 282 281 282 282 283 282 283 287 287 285 284 283 284 285 285
298 297 301 310 312 308 298 287 286 287 289 293 293 293 295 294 294 293 293 295 294 293 293 293 293 294 292 289 290 290 293 287 290 289 287 286 286 287 288 290 293 292 293 290 290 293 288 287 287 283 279 282 281 283 284 284 284 281 281 284 288 290 287 281 280 276 277 279 283 280 278 285 286 281 281 281 283 283 285 284 284 286 285 284 284 284 285 285
297 298 297 303 309 306 294 294 289 288 288 287 289 289 291 293 295 296 295 294 296 295 294 293 295 294 294 293 293 292 294 293 289 292 292 288 289 288 288 290 294 294 293 293 297 296 290 288 287 282 280 277 277 278 280 279 284 283 282 286 285 287 286 283 282 281 280 285 282 282 284 286 286 284 286 285 284 286 286 285 284 285 285 285 283 284 284 285
295 287 296 297 301 301 300 299 295 290 288 287 286 288 292 290 293 296 297 295 297 296 296 294 294 296 294 292 290 290 290 292 290 286 289 288 287 288 288 290 293 295 295 296 294 295 286 288 289 288 286 284 286 285 285 286 283 283 284 286 286 287 288 288 286 282 282 283 281 286 287 288 286 285 285 288 285 287 289 288 287 286 285 284 284 284 284 285
296 289 289 288 295 295 296 298 295 294 289 292 285 289 287 290 292 292 298 292 297 296 294 295 295 293 291 293 291 290 291 291 291 289 287 287 286 288 289 289 292 293 295 295 294 290 286 287 289 289 288 289 290 289 285 289 286 287 286 285 287 286 287 286 285 285 287 280 281 288 287 286 289 287 285 286 287 286 287 289 286 285 286 286 285 283 286 284
290 291 295 297 293 288 290 292 296 293 293 293 288 291 288 288 290 288 294 296 296 297 293 293 295 296 295 293 293 288 288 289 289 288 290 286 289 290 291 290 291 293 293 293 293 292 288 287 290 289 288 290 289 288 285 287 287 287 287 287 285 287 286 285 286 289 287 286 284 288 287 287 290 292 292 290 290 291 293 292 290 289 286 283 282 283 284 284
295 291 291 297 291 289 294 296 297 295 293 292 290 290 286 287 287 292 292 291 293 293 296 288 291 293 294 295 292 289 289 287 287 290 289 287 288 287 287 289 290 290 292 290 291 289 290 288 290 288 287 288 288 287 283 286 284 284 285 286 287 287 286 287 288 289 289 288 290 291 286 288 292 293 293 293 293 294 293 290 288 288 286 284 284 284 284 284
289 292 288 293 292 290 290 294 295 294 291 293 287 288 289 288 287 290 293 292 288 291 297 292 293 294 294 295 294 290 292 293 293 289 292 291 288 288 288 290 287 288 290 289 290 289 290 288 292 288 287 288 289 288 282 284 282 283 284 285 286 287 287 288 288 289 289 289 291 290 289 289 294 291 292 294 295 294 290 289 291 291 288 286 285 285 285 285
294 292 293 289 289 288 288 290 292 292 290 292 289 290 290 290 288 291 291 296 293 290 294 292 294 294 294 294 294 294 297 296 295 295 293 293 290 292 291 288 290 286 287 288 288 288 289 286 286 288 286 286 289 288 284 281 281 281 284 285 285 285 284 286 285 289 287 287 289 288 287 288 293 293 292 292 291 292 293 293 290 289 288 287 287 287 286 286
295 294 295 293 285 292 290 287 291 291 286 292 292 291 291 290 292 293 288 294 296 297 296 296 296 295 292 292 293 295 298 299 298 297 295 295 294 292 294 291 292 289 287 288 287 287 287 288 286 287 285 285 289 288 284 283 284 283 285 287 288 288 287 287 289 290 290 291 288 286 288 294 294 289 291 290 290 292 292 293 292 291 289 288 288 288 288 287
Wind_Speed
6 6 4 0 1 2 2 3 4 5 5 6 6 7 7 8 8 8 8 9 9 9 10 11 11 12 12 12 12 12 11 2 2 1 1 1 1 3 4 5 6 9 6 3 7 3 1 5 6 9 3 5 4 2 2 3 2 1 3 7 2 2 3 5 6 9 1 3 4 2 2 4 1 0 0 0 5 2 1 1 4 1 0 1 2 1 3 1
5 3 4 3 1 1 2 2 3 4 5 5 6 6 7 8 8 8 9 9 9 10 10 11 12 12 12 12 11 11 6 3 2 1 0 1 3 3 4 4 6 8 3 4 4 3 2 3 3 6 4 2 3 1 1 1 2 5 2 3 4 6 3 7 4 6 2 2 4 2 0 3 3 4 1 1 1 2 0 1 2 2 2 0 1 3 3 3
7 5 4 4 2 1 1 2 2 2 3 4 5 6 6 7 8 9 9 9 9 10 11 11 12 12 12 13 13 8 2 2 2 0 0 5 5 3 4 4 4 6 3 0 0 3 1 2 0 2 4 3 8 1 4 2 2 1 2 2 1 7 2 5 4 5 3 3 5 3 1 1 0 1 0 1 1 1 3 3 1 2 4 4 0 1 2 3
7 6 4 4 3 3 2 1 2 2 2 3 4 5 6 6 7 8 9 9 10 10 11 11 12 12 13 12 11 4 1 2 0 1 1 6 5 4 4 4 2 2 3 6 3 3 4 7 6 4 1 7 4 2 4 4 2 0 3 3 3 4 2 2 5 4 4 2 4 3 1 0 1 2 1 2 2 4 6 6 6 8 8 7 4 1 2 4
6 6 5 4 4 4 2 2 2 3 3 3 4 5 6 6 7 8 9 9 10 10 11 11 12 12 12 11 10 1 3 3 2 0 2 7 5 5 4 4 1 2 3 5 3 6 8 4 2 5 4 0 4 3 1 2 2 3 1 1 1 2 1 1 4 4 4 2 6 2 5 3 1 1 2 6 5 7 6 4 8 6 5 9 8 4 3 4
7 5 5 5 5 3 3 2 2 3 4 4 4 5 6 6 7 8 9 9 10 10 11 11 12 13 12 9 3 1 2 1 1 1 7 8 6 4 3 4 4 4 4 6 2 3 1 5 4 2 2 4 3 4 2 0 2 2 1 0 2 1 1 0 3 5 5 3 4 3 2 2 2 1 1 5 8 4 2 3 5 5 4 5 4 6 5 5
8 7 6 5 4 4 2 3 3 4 4 4 5 5 6 7 7 8 9 9 10 11 11 12 12 12 12 5 1 4 2 3 1 3 7 8 5 4 1 5 5 7 5 2 6 2 3 4 5 1 3 3 1 2 0 3 3 7 2 0 1 2 1 1 0 4 1 9 3 2 1 1 2 4 1 3 6 2 3 3 3 3 5 7 8 5 7 5
8 7 6 5 4 4 3 3 3 4 5 5 5 6 7 7 8 9 9 10 10 11 11 12 12 11 9 1 0 2 1 1 2 3 9 7 6 7 2 5 8 5 10 5 0 1 1 4 4 3 6 3 1 2 3 2 7 3 1 1 0 0 2 2 1 2 0 0 1 3 1 1 4 2 1 6 8 1 2 3 4 5 6 5 6 5 5 5
9 7 7 5 5 3 3 3 3 4 5 5 5 6 7 8 9 9 9 10 10 10 11 12 11 10 1 2 3 1 2 1 3 6 6 7 7 9 7 3 6 7 3 3 3 3 2 1 1 3 2 1 1 2 4 2 2 0 1 2 1 0 3 1 1 1 0 0 1 2 3 3 2 3 4 10 2 1 3 5 4 5 6 5 5 4 5 5
9 9 7 5 4 4 3 3 3 3 4 5 6 6 7 8 9 10 9 9 9 9 10 10 11 9 1 2 3 0 1 2 4 4 4 4 6 8 10 3 4 4 3 4 4 6 2 4 1 5 10 4 1 2 1 3 1 2 2 1 1 1 2 2 1 1 0 0 0 3 2 1 4 3 9 1 3 3 4 4 1 5 6 4 4 3 3 5
10 9 7 6 4 4 4 4 3 3 4 5 6 6 7 8 9 10 9 9 9 8 9 9 10 4 1 2 3 4 1 2 1 4 5 4 9 9 4 5 1 3 5 4 5 0 2 5 3 3 2 1 2 1 2 0 2 3 3 2 1 7 1 1 1 0 1 2 3 3 2 1 3 1 10 2 3 3 7 4 3 2 4 3 2 3 2 2
8 8 7 6 5 4 4 3 3 3 4 5 6 7 7 8 9 9 9 9 9 8 7 8 6 2 3 5 4 2 2 3 3 2 5 4 5 2 3 1 3 3 2 3 2 1 1 4 3 2 1 1 1 0 1 1 2 0 1 0 4 7 1 1 1 0 1 1 4 4 1 3 1 8 7 2 2 2 4 5 3 3 2 1 2 2 3 3
7 6 6 6 6 5 4 3 3 4 5 6 6 7 7 7 8 9 8 9 8 8 7 6 5 0 1 1 3 5 2 1 1 2 5 6 5 3 4 4 5 4 2 4 1 1 2 4 4 8 0 3 2 1 1 4 1 0 5 1 3 5 3 1 0 1 3 1 3 2 4 7 8 14 3 0 6 4 3 4 4 4 3 3 2 3 3 2
9 8 7 6 6 5 5 4 4 5 5 6 7 9 8 8 8 8 8 9 10 8 7 4 2 1 2 2 3 3 2 0 1 5 3 2 4 2 4 4 5 4 3 8 2 1 3 1 6 6 2 3 1 0 3 3 4 1 1 5 1 2 2 1 1 0 4 1 2 1 4 8 7 6 2 2 5 9 7 6 5 5 4 4 4 4 4 4
12 9 8 7 7 6 5 5 5 5 5 6 8 8 8 8 9 9 9 8 8 6 5 2 1 1 2 3 2 6 3 1 4 2 3 1 3 2 3 4 6 5 3 4 2 1 3 3 3 5 1 1 0 1 2 3 4 3 1 2 3 2 3 7 1 4 3 0 1 3 3 9 10 9 2 1 4 4 6 5 6 6 5 5 4 5 4 5
11 10 9 9 8 8 7 6 6 7 5 6 8 9 8 9 9 9 9 8 7 3 0 1 4 5 4 1 1 1 2 1 1 2 2 2 2 2 1 3 1 5 3 3 3 1 6 9 9 1 1 1 7 6 4 2 2 5 1 2 1 1 4 7 1 2 2 1 1 3 7 4 4 2 3 1 4 4 5 5 6 7 7 6 6 5 4 4
14 12 11 10 9 8 7 7 7 7 7 7 8 8 8 9 9 10 8 2 3 1 0 1 0 1 1 1 0 1 1 0 2 1 2 3 3 5 4 4 3 2 4 2 8 3 6 6 2 1 5 5 2 5 2 4 4 2 2 2 3 1 1 2 5 0 0 1 4 1 2 7 5 5 2 0 4 4 6 9 9 8 6 7 5 6 6 6
13 13 11 9 9 8 7 7 7 7 7 7 8 6 6 8 8 4 2 2 1 2 3 2 2 2 4 2 0 2 0 2 2 2 3 2 4 5 4 2 0 5 4 2 4 3 3 1 3 2 1 3 1 3 2 3 4 1 1 0 2 1 3 4 1 0 1 1 3 1 5 11 13 10 5 5 5 6 10 11 9 6 7 7 8 7 7 8
12 12 9 9 8 8 7 7 6 6 6 8 7 7 7 6 1 1 4 3 1 1 1 3 3 4 2 3 1 3 1 1 1 2 0 1 2 4 5 4 5 3 1 3 1 1 4 3 5 4 2 0 5 7 8 6 5 2 6 4 2 2 3 3 5 3 3 2 4 5 8 10 11 12 9 3 4 8 12 6 6 7 7 8 9 8 8 10
12 12 11 10 9 9 8 6 7 5 4 4 3 1 1 1 3 0 3 1 3 3 1 2 1 2 1 2 2 1 1 2 4 3 1 2 1 4 6 3 4 7 3 3 2 2 1 3 4 6 8 9 6 9 5 4 5 5 4 3 2 2 5 4 4 3 1 0 7 9 9 8 10 10 12 3 4 6 9 11 11 9 10 10 10 11 11 10
12 12 12 11 10 10 9 8 5 3 2 2 1 1 3 6 6 2 3 5 2 2 2 1 1 1 0 1 0 4 5 1 2 0 1 0 1 6 1 2 3 1 1 0 3 1 3 1 7 11 6 6 5 4 7 5 3 2 3 1 2 2 6 4 0 2 3 3 3 1 4 9 12 12 13 6 3 10 12 14 13 14 13 11 11 12 12 8
12 12 11 12 11 11 9 7 5 2 2 1 1 2 0 3 0 1 3 2 2 5 4 1 1 1 1 2 2 2 5 3 2 0 1 1 1 5 2 4 3 7 0 2 2 2 1 7 11 5 4 4 4 5 3 4 3 3 2 2 1 7 4 10 3 3 1 1 9 4 7 11 8 10 12 12 13 10 11 13 15 13 13 11 11 12 8 6
13 13 13 12 12 11 10 7 4 4 1 1 2 2 3 2 1 2 2 3 3 1 3 2 2 5 3 3 1 2 1 3 6 4 4 1 2 2 5 4 3 3 1 2 8 3 1 6 14 4 5 5 4 3 4 3 2 4 3 1 7 3 1 5 1 2 2 1 3 3 9 12 8 9 15 18 13 8 8 10 11 8 11 14 15 12 12 11
14 14 13 13 13 12 9 7 5 4 1 1 2 5 1 1 0 1 0 1 2 4 3 4 4 3 5 4 4 5 4 3 4 7 4 5 8 3 5 4 5 4 7 7 8 11 10 2 1 5 6 6 4 2 5 5 4 2 5 3 2 3 5 5 5 3 1 1 2 4 8 12 6 10 9 5 3 5 13 6 10 11 11 7 3 6 10 13
14 14 13 13 12 11 9 8 4 3 4 2 4 5 5 3 1 1 0 3 2 3 1 2 3 3 4 2 2 6 2 1 5 2 4 8 6 4 3 1 4 5 5 4 1 2 10 5 3 5 2 3 5 3 5 7 4 2 5 9 8 5 5 3 3 4 7 4 3 2 6 6 5 4 11 10 5 6 4 4 13 13 6 5 8 8 5 7
14 13 13 13 13 11 12 4 3 5 4 4 5 3 5 3 0 1 6 3 4 3 3 5 4 4 5 1 3 4 4 4 2 3 5 4 3 4 2 1 2 8 5 5 6 4 6 0 4 4 5 3 3 4 4 6 5 1 5 6 8 3 1 0 0 2 3 3 2 1 1 12 2 4 4 6 4 10 8 5 12 8 5 5 9 7 8 10
15 15 15 14 14 14 6 4 3 7 3 4 4 3 2 3 1 0 1 4 5 5 7 2 2 2 1 3 7 4 3 7 0 3 4 2 5 1 5 5 2 3 3 3 3 7 2 1 4 4 4 4 4 3 5 10 6 4 1 2 4 4 5 3 3 4 5 1 4 1 2 2 17 4 5 3 5 10 13 15 13 9 6 8 7 8 8 10
15 15 15 16 15 14 0 3 9 5 4 1 2 5 4 4 2 1 4 1 5 3 2 2 2 2 2 2 4 8 2 2 4 3 1 2 2 2 2 8 10 10 5 5 9 2 6 5 5 5 2 3 7 6 4 8 7 3 0 4 4 5 3 4 3 2 0 3 10 0 1 1 8 6 3 2 2 7 15 15 11 3 5 7 8 8 7 8
16 16 15 15 15 14 3 5 5 6 2 1 4 5 6 5 2 6 4 4 2 2 3 4 4 2 2 2 1 2 1 4 1 1 2 2 4 2 2 5 4 4 1 6 10 1 1 4 7 7 7 8 4 1 5 11 5 1 6 8 7 7 6 4 4 3 1 3 10 6 5 3 15 3 3 3 1 9 14 12 7 5 5 5 6 5 4 4
17 17 17 17 12 9 3 1 6 2 2 3 5 7 6 3 2 3 3 7 1 3 1 1 2 5 4 11 4 3 2 2 1 1 2 4 1 4 1 3 4 4 3 1 1 5 1 4 4 4 6 3 5 3 1 1 1 8 3 7 5 8 4 3 6 2 3 4 9 11 11 7 10 2 7 6 8 8 6 6 5 4 4 5 4 4 5 6
18 19 19 18 9 6 3 3 7 2 2 4 7 7 5 6 4 4 6 7 3 1 2 1 2 3 10 12 6 2 3 0 0 5 3 0 1 3 1 4 3 4 2 3 5 4 1 1 1 1 3 4 4 4 4 2 4 5 2 3 4 2 6 3 4 4 2 9 2 3 6 3 10 5 6 8 5 4 5 6 4 3 3 3 4 4 5 6
18 19 21 15 7 7 11 4 4 5 4 6 8 7 6 4 4 8 7 3 2 5 8 4 1 5 10 1 3 8 8 2 2 4 9 6 7 9 10 11 8 4 4 8 7 2 4 6 1 2 3 8 3 8 4 3 1 4 6 7 5 3 6 3 3 1 5 8 0 2 1 2 16 10 6 9 11 9 9 10 9 7 7 4 4 5 5 5
19 19 22 14 10 7 7 0 5 6 5 5 6 4 5 5 9 9 8 4 4 3 3 4 4 6 8 5 5 3 1 8 1 3 4 0 7 8 2 4 5 6 8 3 5 1 7 1 1 2 2 5 8 8 3 1 5 5 8 7 6 1 1 5 5 2 7 6 3 1 0 7 2 7 15 22 20 12 7 9 8 7 8 5 4 4 5 6
18 19 14 12 11 8 6 4 6 8 8 5 8 6 4 6 11 12 14 6 1 3 4 2 4 3 8 8 5 8 5 2 8 4 3 6 7 8 8 7 4 2 5 2 10 9 5 5 8 9 5 6 9 11 12 7 10 9 2 10 10 9 7 3 4 6 7 4 2 4 1 8 4 4 1 8 7 8 6 5 4 5 5 3 1 3 4 6
19 17 13 11 9 9 9 6 8 9 7 9 8 10 13 13 10 10 9 6 1 2 2 0 6 5 4 3 2 2 2 2 2 5 3 8 9 7 9 12 9 5 2 5 4 3 11 7 4 4 2 6 13 1 6 6 3 2 1 5 4 9 6 6 4 3 1 3 4 2 7 4 6 3 6 5 7 7 6 7 3 10 3 3 2 5 8 9
7 8 11 6 11 9 9 7 9 9 8 9 10 12 17 14 14 8 6 6 2 5 4 5 4 5 3 3 3 7 2 2 3 3 2 4 1 6 6 4 12 16 10 11 4 4 3 6 2 5 5 2 2 1 1 3 8 4 6 7 5 2 6 5 2 1 1 2 12 3 9 6 8 9 13 13 5 9 4 6 5 8 2 2 6 6 7 8
5 4 7 6 11 10 11 8 7 9 10 9 11 14 12 10 4 4 4 10 7 15 6 8 6 8 6 7 4 5 5 4 3 5 6 2 5 8 5 9 6 10 15 8 1 3 8 5 2 2 4 1 0 0 3 5 3 9 4 7 2 2 4 4 5 2 4 4 8 3 7 6 2 14 3 1 5 10 7 9 8 4 2 5 8 6 8 9
2 3 6 11 13 14 13 12 13 8 7 12 13 12 5 9 1 3 1 5 5 5 6 11 3 9 5 8 7 7 3 5 5 3 4 6 7 5 7 2 6 13 13 1 5 2 3 4 1 2 1 4 2 1 2 2 2 5 3 5 7 4 2 2 4 4 1 5 7 5 2 8 10 12 1 1 7 11 12 12 6 7 7 11 6 7 6 5
2 2 4 9 9 13 12 13 12 12 12 10 11 16 6 11 3 2 5 5 2 7 10 7 6 4 5 7 4 3 11 10 9 8 5 4 6 6 14 10 5 9 11 5 3 1 1 5 3 1 2 1 1 3 10 3 1 1 2 3 1 3 1 5 6 3 5 4 2 9 3 15 7 8 8 10 11 12 11 7 7 13 11 7 8 7 9 9
4 2 5 5 15 14 12 13 11 9 9 15 14 10 1 7 1 1 1 3 3 6 5 5 1 5 4 5 9 8 8 4 10 10 7 4 10 2 5 7 5 4 10 12 6 2 3 2 6 1 3 2 4 5 9 13 10 1 2 3 0 0 1 4 1 4 3 4 4 3 11 13 5 6 10 11 11 11 10 11 10 9 7 6 8 9 9 9
2 2 2 5 14 15 14 10 10 13 11 2 5 5 2 1 1 4 4 2 0 2 2 3 8 10 7 5 4 1 5 7 6 5 5 3 8 5 6 8 7 5 4 5 8 3 2 2 8 2 0 6 6 2 4 7 9 11 15 14 16 12 6 4 8 1 1 2 7 4 14 15 3 3 9 8 8 10 6 6 8 6 7 7 7 7 9 9
5 6 2 8 12 19 14 13 7 4 2 10 14 8 6 2 2 2 2 0 4 1 2 2 1 3 4 6 6 6 6 5 6 6 5 10 7 6 2 7 9 15 14 10 16 9 6 3 5 5 8 8 3 0 1 0 1 1 2 3 4 1 3 3 3 6 0 4 3 3 3 20 4 5 5 5 3 5 7 4 10 6 6 6 5 6 7 7
5 5 3 8 14 19 14 12 8 8 4 4 5 1 1 1 4 1 4 4 3 3 0 1 5 5 4 4 3 6 12 5 10 10 5 8 7 9 4 9 7 10 6 1 7 1 5 2 3 4 1 2 2 1 2 1 2 0 1 1 4 8 11 12 7 4 7 2 2 2 1 19 0 1 2 3 3 5 3 6 10 6 5 4 4 4 5 5
2 1 1 4 13 12 11 9 9 10 7 3 9 7 6 2 3 4 6 9 7 3 3 2 1 3 1 3 4 8 11 5 7 12 7 4 4 4 9 10 14 8 11 8 10 8 6 4 7 2 2 1 2 2 1 2 2 1 2 6 11 11 6 2 5 2 2 10 12 9 13 17 1 2 2 1 2 4 7 6 7 8 6 4 4 4 6 6
1 0 1 5 8 10 9 6 6 7 8 4 8 12 8 7 5 9 6 5 3 3 1 3 3 2 2 2 5 4 9 15 4 11 9 4 6 1 3 10 12 9 6 1 3 7 5 7 10 8 11 11 10 11 11 6 9 4 3 6 5 8 11 6 7 6 7 11 11 8 16 6 1 2 2 2 3 7 7 7 5 7 5 5 5 6 6 6
6 4 4 4 6 7 5 4 9 8 9 6 4 6 11 9 2 6 7 4 6 3 5 1 2 1 1 2 3 5 7 8 7 1 7 5 3 1 3 7 12 10 9 8 5 8 2 1 9 12 15 17 16 5 0 11 4 7 10 14 14 12 10 10 4 3 16 6 7 18 23 15 8 2 4 5 4 8 8 6 8 7 7 7 5 5 6 7
2 8 4 6 1 7 7 6 7 9 9 11 7 5 11 15 5 1 9 4 6 8 4 7 2 5 3 3 5 4 3 5 4 2 4 5 0 1 2 4 5 6 6 5 3 6 2 3 9 11 13 17 15 11 7 14 12 15 14 12 16 14 14 14 15 20 8 7 15 22 8 9 23 7 6 7 7 7 9 9 5 5 8 9 7 4 5 6
7 4 8 5 6 7 10 11 10 12 10 11 5 2 9 12 9 7 3 12 2 6 4 0 7 11 12 15 8 4 5 6 5 7 5 0 1 0 0 0 4 4 6 2 3 6 6 7 8 7 14 15 13 9 9 7 9 10 15 15 16 17 15 19 23 23 9 14 22 16 9 16 22 16 13 11 9 11 14 12 11 6 3 3 4 5 6 7
2 3 2 5 9 3 14 13 16 13 11 11 4 6 4 9 12 12 4 4 4 4 11 8 15 19 15 9 8 7 5 4 7 7 5 4 8 4 2 1 3 4 4 1 2 1 4 8 10 7 9 12 16 13 6 10 4 1 7 13 15 18 23 27 26 23 18 17 20 19 8 15 22 11 12 11 12 13 7 3 2 4 6 5 5 6 8 9
2 2 3 1 4 3 3 5 10 13 13 14 9 12 9 12 14 10 3 6 6 12 10 16 17 11 14 13 11 11 13 14 13 10 7 12 4 4 6 6 3 1 4 6 4 2 4 9 10 3 5 14 18 9 3 7 4 5 7 10 14 19 24 26 22 17 17 21 24 17 14 22 21 7 7 10 12 8 6 6 10 10 7 8 8 9 10 11
0 2 1 3 6 4 4 6 8 13 11 11 12 9 9 13 15 13 11 9 12 7 9 19 22 11 8 13 13 15 17 15 15 13 3 8 13 6 8 3 5 5 2 3 2 1 4 4 3 4 8 13 17 12 7 2 2 5 9 13 19 21 16 12 12 17 13 19 20 14 17 25 12 10 7 9 7 11 14 13 9 9 10 8 10 11 11 12
2 1 1 0 4 3 8 4 6 8 13 11 12 15 11 16 14 10 5 5 9 10 12 19 16 10 6 9 13 18 22 13 8 1 3 2 2 3 2 4 8 8 6 5 1 4 5 4 5 7 11 13 20 5 8 6 1 9 17 27 28 14 8 7 16 16 20 22 15 16 23 25 11 5 7 7 9 12 14 11 12 11 10 12 13 13 13 13
Wind_Direction
174 113 96 282 300 337 323 348 344 346 352 351 350 349 352 351 354 354 353 351 350 349 346 344 344 339 340 336 336 343 345 90 40 23 72 235 294 289 309 307 318 315 353 46 22 53 327 11 10 340 26 53 316 45 294 50 50 54 67 115 82 196 144 199 174 186 198 129 224 199 192 115 189 24 229 186 32 55 351 50 312 322 338 218 265 311 260 265
186 151 161 203 227 331 324 339 344 343 351 347 349 343 348 350 349 351 354 350 349 348 346 342 341 341 336 335 335 341 15 76 77 81 228 347 340 326 334 322 329 328 335 38 66 80 84 338 339 34 54 44 329 343 9 352 74 85 121 84 186 177 226 153 194 191 119 259 167 198 161 147 207 141 231 96 299 18 284 303 17 329 309 1 13 354 76 107
184 165 162 188 217 269 274 306 319 351 330 336 338 343 344 347 347 351 350 349 346 346 346 341 340 338 337 334 329 345 338 34 65 354 255 347 333 342 340 337 353 4 55 107 210 124 103 185 249 80 12 94 6 301 30 327 48 195 111 88 246 204 237 202 169 197 201 137 136 150 186 147 262 136 333 223 168 28 219 220 303 269 242 233 268 39 79 102
178 184 138 203 217 241 227 275 327 336 331 331 339 343 346 345 349 348 348 346 347 347 344 344 339 337 334 332 336 329 69 69 58 242 308 324 340 352 342 337 27 39 73 56 140 111 122 81 55 83 58 62 312 41 49 319 51 215 67 155 188 182 111 224 175 216 200 163 149 130 130 44 263 211 148 166 99 255 259 227 179 205 218 202 206 198 143 125
185 193 196 206 218 235 235 275 309 316 323 345 351 337 340 347 349 347 346 346 345 345 344 341 340 334 332 337 340 305 67 64 227 240 290 331 344 355 337 339 43 59 106 148 83 53 69 79 75 38 68 77 3 14 56 330 96 88 70 198 156 138 33 186 188 170 142 150 105 114 128 216 84 62 126 153 194 237 209 233 213 218 195 173 179 188 141 140
190 187 200 209 210 214 242 268 298 310 323 331 333 335 335 343 348 346 346 347 346 344 343 342 337 333 330 338 12 68 79 100 261 0 337 333 340 341 343 356 92 120 101 50 92 29 74 359 61 24 14 63 344 86 310 172 329 87 337 340 201 211 160 287 148 194 127 127 130 140 218 81 142 234 193 178 212 230 222 255 240 232 201 161 120 139 143 154
191 192 194 204 204 213 231 263 289 313 317 313 328 337 334 343 345 348 346 346 346 343 344 340 335 332 327 322 48 86 105 265 29 287 352 333 325 334 267 43 77 61 61 56 18 68 31 74 73 166 92 67 278 85 321 311 21 101 152 330 256 190 280 31 78 129 125 125 202 204 60 178 114 244 114 216 249 241 276 280 238 181 125 131 134 162 159 163
185 190 193 195 200 208 224 266 279 300 304 314 326 332 337 343 346 344 347 342 343 343 341 338 335 334 342 58 17 5 35 253 290 328 335 331 0 340 205 28 33 62 57 65 353 65 91 45 123 165 58 126 197 118 322 51 25 78 70 214 234 102 264 321 92 104 97 33 10 102 138 257 177 196 47 250 247 253 58 85 98 110 113 114 131 144 144 136
190 186 188 187 198 203 240 278 294 297 304 312 319 327 333 338 344 346 343 340 341 341 337 337 334 337 333 80 107 91 270 253 215 304 334 1 342 26 56 15 6 74 128 66 22 142 128 245 115 192 214 112 185 99 340 125 342 133 166 137 355 51 324 336 33 51 23 344 94 102 267 292 267 278 256 240 238 158 109 82 102 115 119 139 149 152 152 155
192 189 183 191 199 206 213 232 270 288 292 303 314 330 328 335 342 344 338 336 336 335 333 335 340 329 31 84 49 80 258 286 299 313 343 8 18 43 44 69 45 68 58 341 30 46 68 205 132 166 124 80 92 66 261 68 201 129 105 95 114 329 0 31 184 352 308 342 280 182 265 286 343 48 275 4 192 133 95 103 91 135 150 151 147 153 160 154
189 190 188 187 203 215 224 227 241 276 293 304 318 323 327 328 335 336 334 326 330 326 330 335 340 335 35 75 112 211 242 29 351 335 340 53 56 52 16 354 50 73 99 26 55 130 99 136 153 128 41 213 108 339 75 183 139 52 131 102 42 337 277 253 31 308 89 272 160 183 241 317 322 94 237 235 169 177 135 144 148 145 157 162 159 166 170 177
198 188 185 190 198 214 226 253 265 277 293 302 315 321 317 317 323 326 325 322 316 322 324 333 354 89 77 68 135 207 333 256 329 327 20 66 68 88 180 35 57 131 120 96 13 351 216 145 108 57 190 160 48 73 52 132 72 206 188 106 310 355 27 28 205 274 160 242 152 159 253 286 182 226 243 260 139 140 140 163 188 186 195 191 187 174 190 197
194 196 203 201 207 206 224 239 263 275 284 286 298 307 307 306 306 312 315 317 310 317 322 336 346 137 89 22 240 239 276 285 25 2 41 52 106 83 83 55 74 76 134 123 110 324 133 125 106 80 259 97 150 80 178 76 339 189 36 93 357 3 336 321 4 34 142 249 130 149 283 262 248 245 262 142 145 113 128 193 210 218 217 221 205 203 220 232
188 197 200 205 208 209 224 244 261 282 291 296 310 313 312 305 296 297 303 297 307 305 324 326 61 66 87 235 273 245 282 179 75 55 0 307 66 355 21 16 58 53 38 93 96 135 77 82 93 114 126 83 120 297 47 342 17 121 275 63 80 14 278 308 73 287 147 175 149 68 216 281 271 281 292 212 163 162 192 209 215 221 226 220 221 216 215 234
181 185 199 203 201 209 218 237 254 269 280 302 310 308 305 301 295 294 294 302 294 313 332 11 357 64 55 265 294 296 236 114 42 331 312 68 102 41 6 6 27 24 70 93 115 80 114 68 64 40 23 289 36 68 7 24 8 18 51 299 324 139 277 294 239 166 158 353 69 108 294 251 267 272 311 234 171 176 208 212 220 223 221 222 224 221 225 231
180 188 202 204 207 212 209 227 241 254 274 291 305 305 295 289 291 292 293 281 292 360 314 106 3 102 97 305 200 21 47 89 163 298 300 102 84 125 168 97 357 26 43 25 75 100 45 77 69 162 209 13 57 93 53 33 342 354 66 265 266 40 267 338 79 267 330 102 358 168 233 330 314 295 329 163 170 188 221 240 233 227 224 221 219 220 224 238
182 186 195 206 207 203 205 222 237 254 274 285 295 299 290 280 288 296 296 288 350 299 112 178 178 89 192 253 48 18 232 250 313 6 356 16 104 144 83 35 13 9 5 37 21 57 358 61 281 21 35 101 133 93 70 12 327 311 10 197 205 180 269 257 311 352 329 115 208 295 223 241 242 280 343 206 176 183 226 241 238 229 224 222 218 217 218 219
184 192 197 198 198 196 203 220 236 253 268 282 290 289 289 292 304 314 246 29 344 83 87 89 117 65 290 350 175 229 94 306 45 176 53 320 106 73 90 82 44 69 38 30 1 63 334 60 32 167 13 3 49 61 115 229 199 222 178 325 295 289 212 247 315 238 101 9 197 292 244 266 272 273 246 209 185 193 228 228 237 232 228 224 221 216 218 218
185 190 188 186 190 191 197 218 233 247 267 289 303 291 284 302 336 122 65 358 87 15 59 207 140 138 203 216 338 28 198 205 123 58 145 63 26 92 64 72 70 98 13 64 267 89 350 77 33 39 214 127 216 165 177 210 153 193 170 176 162 184 227 209 239 280 186 218 236 224 231 250 261 274 273 214 196 200 237 259 266 247 233 228 221 221 217 218
184 183 185 188 186 189 198 206 226 244 285 357 4 31 51 56 12 339 340 10 214 179 159 232 112 165 87 12 141 278 279 42 126 335 284 279 110 55 37 57 24 60 99 182 314 61 83 111 177 202 217 209 207 192 186 163 125 94 90 112 187 206 283 280 269 263 265 331 234 233 242 250 265 265 274 242 185 228 254 256 245 240 233 226 223 219 219 217
185 184 187 187 185 187 192 203 218 240 82 80 0 108 167 173 110 272 243 255 207 148 62 7 217 145 278 136 267 160 128 343 66 100 200 131 133 104 288 39 29 83 353 191 134 312 60 104 248 226 219 190 207 126 103 85 52 136 117 146 259 160 249 237 138 19 313 173 295 291 286 261 257 270 273 273 161 235 231 241 245 240 230 230 221 223 218 214
186 184 181 184 185 184 187 196 207 151 109 169 54 166 158 199 167 194 120 275 270 217 148 173 89 299 10 220 258 141 73 80 45 321 294 129 82 144 280 103 140 181 206 101 28 35 70 198 242 222 129 103 62 127 119 137 126 55 173 160 343 268 245 282 278 332 284 106 263 320 292 266 259 259 265 257 239 240 225 224 236 229 234 230 225 223 210 180
184 182 183 178 183 181 183 183 176 137 63 107 158 132 204 230 299 203 101 109 263 332 181 178 228 244 267 299 266 152 144 169 187 225 213 96 70 184 141 111 131 120 70 170 163 148 312 278 253 144 134 104 47 88 110 76 71 123 101 117 223 239 30 302 311 3 12 165 284 319 305 279 257 250 249 247 239 252 248 243 252 232 232 227 223 209 200 203
183 179 179 178 178 178 170 165 131 101 106 133 147 206 235 153 183 117 80 280 289 298 193 228 192 161 195 150 208 128 153 234 110 200 263 129 148 178 114 151 114 119 186 190 176 174 199 208 338 146 149 150 135 105 123 143 226 270 178 165 230 210 235 185 256 310 275 28 61 326 286 281 242 245 260 286 326 282 264 265 265 251 237 256 265 211 202 198
180 178 174 173 175 165 157 137 157 189 127 56 285 237 210 202 92 301 68 349 6 297 253 313 153 226 207 43 107 158 245 21 228 207 170 133 140 108 209 165 108 201 191 185 117 257 276 257 110 84 94 93 111 152 207 151 231 303 232 196 213 204 221 294 348 10 3 337 349 53 326 295 289 253 252 278 324 283 265 238 251 252 240 229 235 221 196 204
176 175 170 169 166 156 142 157 210 135 138 191 217 234 197 181 100 73 93 78 275 264 15 239 146 262 135 196 103 151 70 252 221 206 138 204 116 134 91 125 130 210 189 137 181 205 209 32 135 159 144 160 146 181 235 159 190 57 271 205 222 190 151 120 312 65 309 246 307 40 151 288 269 249 253 264 273 276 285 246 261 260 242 219 229 212 197 191
177 171 167 167 166 148 138 236 147 132 115 266 232 180 162 149 148 95 92 359 308 197 170 256 116 256 39 200 144 100 165 256 52 72 123 286 171 356 132 187 46 17 145 161 32 264 121 205 85 80 100 133 152 225 244 165 122 242 252 140 144 146 186 208 146 183 233 260 290 65 116 264 297 268 240 310 314 284 291 276 259 251 229 226 225 212 200 193
175 170 168 167 164 167 175 128 135 171 202 201 132 126 136 144 104 52 83 38 273 108 140 227 220 355 82 193 165 156 215 153 108 233 13 278 89 6 105 191 171 181 182 107 209 275 158 190 172 163 138 131 198 210 186 157 143 219 233 134 137 156 163 126 123 137 51 28 290 186 124 250 253 273 307 344 269 279 263 259 259 252 240 232 227 218 206 194
175 170 168 170 162 181 122 155 173 198 233 182 125 124 108 94 79 109 121 195 246 83 277 92 277 48 4 92 148 62 118 355 156 324 307 53 32 146 189 213 166 147 191 181 215 259 311 176 211 170 151 209 215 296 177 164 171 217 121 91 86 80 69 100 100 88 324 45 268 170 184 181 274 207 229 339 207 254 253 260 277 256 242 237 234 226 197 176
176 173 170 169 161 181 225 199 224 239 132 123 136 118 97 81 98 104 63 242 114 232 84 183 134 201 140 153 209 10 109 340 50 81 38 155 289 35 22 148 113 102 207 344 73 213 234 297 187 139 196 193 122 44 111 19 110 134 101 75 31 41 30 26 61 79 41 263 256 174 198 161 278 194 200 158 212 214 268 309 295 295 288 266 243 205 186 177
179 174 173 165 173 181 127 233 226 184 159 137 135 118 101 39 134 124 207 224 39 132 42 131 161 72 145 150 184 305 72 13 143 156 126 34 27 48 137 39 51 60 48 332 276 335 358 13 159 252 94 112 101 77 17 89 126 124 95 125 66 349 10 32 344 36 120 265 258 300 207 179 215 292 276 247 276 237 212 245 282 278 272 261 225 203 187 175
183 179 174 173 161 141 182 213 186 143 160 164 133 127 120 125 352 183 226 62 282 208 157 195 243 155 174 162 100 173 158 34 184 175 158 174 160 161 206 176 155 118 286 213 255 30 266 223 232 327 205 132 113 85 8 35 341 81 92 83 109 248 32 307 23 266 197 230 246 344 115 343 241 239 279 282 268 263 219 223 229 239 257 263 241 207 180 171
187 183 178 179 156 183 210 232 143 152 143 173 127 121 137 118 208 217 244 174 241 117 243 94 178 163 164 133 196 165 23 169 224 188 94 87 150 226 273 181 203 135 203 212 184 74 267 288 246 208 89 232 150 147 165 82 216 127 156 146 107 109 166 264 274 268 303 293 275 319 178 251 292 280 228 245 247 241 231 231 234 236 249 249 233 189 176 177
191 185 184 183 185 186 175 141 163 146 151 156 145 86 48 179 224 202 213 221 202 349 63 91 90 47 153 166 214 161 175 240 155 200 156 164 167 200 235 249 176 246 89 125 172 188 236 301 245 140 243 175 188 202 181 158 161 206 96 162 180 149 160 205 199 225 232 224 276 282 89 233 128 246 281 251 273 290 265 243 240 252 255 266 251 169 172 183
200 192 185 183 187 190 180 168 165 158 161 152 144 169 176 210 229 208 220 200 357 43 33 333 112 111 220 336 302 226 116 186 170 118 182 148 203 203 187 205 219 133 167 140 254 81 214 233 269 247 312 163 185 208 107 95 77 210 162 68 105 220 141 231 208 168 279 335 342 215 213 192 191 263 290 239 273 283 274 273 246 259 241 214 180 184 193 199
205 206 190 178 185 188 168 169 172 153 161 149 150 180 196 189 214 193 225 113 128 127 134 50 67 140 207 178 334 195 317 114 211 112 257 217 303 202 214 208 193 192 157 192 158 177 51 265 311 310 38 126 179 51 133 143 197 209 114 204 207 166 104 85 56 40 64 51 256 142 286 287 298 281 243 248 251 273 299 281 266 259 276 169 219 206 208 207
229 176 212 179 198 166 165 155 169 167 168 165 168 196 202 218 196 123 179 172 178 133 141 139 224 155 176 209 180 194 223 77 188 147 227 131 292 213 209 232 184 193 210 151 277 193 150 235 342 68 208 331 196 233 100 28 143 99 194 229 153 123 111 137 230 357 72 199 269 93 245 289 45 281 356 13 238 255 269 262 246 264 213 227 229 211 209 209
203 225 223 204 192 167 164 165 164 174 168 161 197 212 222 227 242 121 114 97 85 143 142 199 257 140 205 165 211 172 219 176 190 172 208 181 243 189 172 202 209 198 203 205 171 261 126 276 316 324 216 292 355 131 46 353 34 143 196 197 123 234 237 291 92 267 207 261 277 290 253 261 191 250 76 222 207 240 244 247 258 271 238 237 228 225 222 208
190 193 247 209 139 156 166 161 183 172 168 183 192 207 212 230 145 128 188 135 145 149 196 214 162 229 136 189 164 160 163 187 168 193 145 222 217 196 187 170 226 201 188 153 188 208 65 186 285 333 129 299 354 122 198 183 352 40 66 100 81 97 166 129 199 173 121 263 42 288 72 267 167 222 185 224 204 217 227 244 245 242 245 225 218 213 208 204
177 210 248 157 150 158 158 163 181 178 178 189 189 220 121 216 134 286 274 133 205 156 220 179 188 153 180 199 156 162 218 186 166 196 190 213 203 290 187 196 163 161 175 185 195 124 204 143 252 293 312 107 189 197 207 164 169 97 124 211 161 21 238 114 42 142 179 181 188 269 302 262 244 199 180 210 204 214 201 211 228 247 246 220 214 203 207 206
185 240 277 160 157 148 154 178 217 184 180 251 267 241 304 194 150 238 220 18 329 344 169 165 165 189 170 119 244 194 163 168 180 186 203 245 185 252 206 170 142 140 125 163 207 183 130 159 204 168 290 223 236 253 214 201 199 185 182 193 183 145 155 142 252 60 116 138 243 165 253 274 261 169 206 195 227 188 233 226 223 240 254 236 216 206 199 203
164 221 216 160 155 146 156 192 196 160 164 189 203 182 216 196 45 289 268 346 41 301 350 115 305 141 147 191 154 167 143 179 193 191 234 211 220 207 276 170 162 148 146 176 199 199 164 149 95 198 215 204 213 168 265 187 85 138 148 253 149 176 94 118 181 239 33 251 97 192 78 269 150 190 218 178 227 250 164 226 260 240 241 242 231 213 210 206
210 221 347 164 164 155 165 196 187 198 193 219 44 94 257 342 215 173 207 212 224 181 255 220 199 155 254 154 169 163 168 199 174 203 198 217 238 199 231 161 122 159 120 354 31 305 107 121 179 271 337 310 324 310 62 64 97 15 7 72 137 183 188 200 205 169 172 164 199 241 212 265 70 223 243 236 213 270 284 168 237 261 255 250 217 205 206 203
211 181 91 158 179 166 173 189 189 202 212 137 197 218 189 237 167 179 202 213 198 149 184 205 355 227 182 146 148 182 183 208 213 203 244 207 250 223 158 151 158 172 165 210 171 184 150 235 193 159 343 336 337 347 353 10 52 173 170 212 202 203 186 76 89 74 206 211 195 166 238 260 269 343 304 342 295 273 265 251 209 244 251 223 220 211 201 196
117 309 204 177 187 186 195 164 183 188 207 175 177 203 183 220 218 217 195 211 204 212 142 252 203 161 196 178 183 176 198 202 199 214 211 180 231 58 281 165 178 184 210 356 74 183 173 168 168 190 210 228 235 214 214 193 193 212 239 212 205 174 187 152 230 201 221 235 162 208 248 245 8 319 315 281 308 287 259 242 244 226 248 233 208 199 198 189
179 214 173 206 193 208 226 122 168 177 203 191 217 224 202 217 227 191 173 237 181 201 207 113 350 125 172 125 179 198 215 240 217 196 187 229 237 295 223 195 185 195 194 115 152 145 182 258 203 193 200 225 235 241 16 119 77 184 221 190 203 207 200 204 219 186 222 214 158 225 231 251 278 280 283 269 222 245 258 250 231 239 245 241 221 194 188 191
171 217 157 187 149 237 207 164 159 179 208 185 209 162 200 216 198 353 185 230 195 194 197 205 182 189 223 202 209 223 223 217 229 197 213 210 292 238 352 173 251 255 142 134 162 108 87 199 226 230 228 232 236 228 190 155 181 206 200 202 205 194 195 190 200 224 185 85 252 244 224 252 255 228 253 251 254 261 259 252 259 254 241 220 203 185 191 196
211 215 180 187 176 181 198 217 178 186 203 183 226 143 204 208 198 210 170 221 118 182 175 35 206 219 210 208 197 207 176 211 178 219 202 124 123 325 119 231 201 196 157 177 188 164 158 212 231 219 240 247 254 251 168 201 197 195 200 200 198 199 191 203 219 225 152 209 233 254 154 223 250 232 214 215 216 221 228 226 222 218 210 165 153 180 196 203
278 346 250 174 202 205 204 192 190 194 185 174 214 190 193 203 210 211 177 177 173 204 186 218 214 216 216 214 205 218 186 158 242 230 207 173 192 146 200 311 244 109 150 104 160 212 148 228 228 204 241 255 254 247 166 198 223 185 219 214 205 195 202 208 218 217 208 228 242 247 208 237 246 234 204 211 219 227 236 188 200 214 220 187 186 200 205 206
218 241 265 313 231 206 183 187 190 195 215 172 186 203 200 197 212 208 212 164 184 213 186 218 228 208 212 220 213 220 219 215 217 218 207 198 219 178 219 191 131 16 158 193 154 292 153 227 214 150 230 251 252 249 159 204 190 235 233 224 221 213 211 210 215 220 219 238 242 250 270 269 260 130 193 205 225 252 291 238 226 231 224 208 204 211 216 213
291 110 126 351 211 203 151 167 186 194 208 192 204 207 207 206 219 195 211 194 197 189 180 217 226 211 203 212 214 227 235 225 228 231 204 180 219 214 179 264 122 131 185 148 164 259 165 260 57 126 227 251 253 235 221 138 215 254 256 238 229 221 220 215 216 220 201 225 236 245 251 252 261 144 171 197 205 226 238 242 233 232 222 209 210 219 218 220
99 252 79 119 295 227 198 159 183 178 213 191 197 209 203 215 217 175 230 220 219 215 198 215 225 204 216 200 213 223 232 229 239 187 160 203 82 56 152 162 152 152 166 179 38 158 177 175 179 183 224 236 255 184 179 134 177 263 253 239 231 222 207 214 225 217 207 209 218 223 236 245 231 170 180 211 194 221 233 236 239 238 222 209 212 216 220 223